STARLINK-31936 (59875 NORAD) Tracking and Keplerian Element Data

This shows tracking and keplerian element data for the satellite.

Feedback or suggestion? Click here.




ElementValue
Catalog59875
NameSTARLINK-31936
Epoch Orbit295
Epoch Day160.16667824
Epoch Year2024
RAAN327.9326
Inclination43.0051
Eccentricity0.0002027
Argument of Perigee253.1776
Mean Anonmoly254.285
Mean Motion15.7753993
Decay Rate0.00198457
L11 59875U 24098T 24160.16667824 .00198457 00000+0 11328-2 0 9990
L22 59875 43.0051 327.9326 0002027 253.1776 254.2850 15.77539930 2954



Live tracking and technical data element details for STARLINK-31936 (NORAD 59875). STARLINK-31936 can be tracked NOW for your location showing map with azimuth and elevation plus other details from your city location.







IsCatalogInMostPopularTable: catalog: 59875, numindb: 8
Update: records affected: 1



GetName: 59875 STARLINK-31936

Hit Count: updated at: Thu, 25 Jul 2024 01:15:10 GMT